Погода в Адамовке

Россия / Оренбургская область     52°04′23″N   54°12′18″E
темп.,
°C
ветер,
м/с
пор.,
м/с
влажн.,
%
обл.,
%
осадки,
мм/ч
давл.,
гПа
погр.,
м
23 мая, пн
пн2323:00+6юв3890100 0.6 1001507
02:00+6вюв5995100 0.3 998456
05:00+6в5998100 4.9 996353
08:00+8ююв31099100 1.9 995494
11:00+9зюз61197100 2.4 996734
14:00+9зюз5993100 0.5 1000687
17:00+11зюз4780100 0.6 1002980
20:00+10ссз128490 0.0 100278
24 мая, вт
вт2423:00+9всв338986 0.1 100273
02:00+9ссв1192100 0.2 100332
05:00+7св119359 0.2 100410
08:00+10с3384100 0.0 1004260
11:00+13с3369100 0.0 1005928
14:00+14с3363100 0.0 1005959
17:00+14сз2270100 0.3 1006503
20:00+10с4795100 5.1 1006309
25 мая, ср
ср2523:00+10ссв2494100 5.8 1007200
02:00+9ссз3793100 0.0 1007230
05:00+9сз3590100 0.0 1007138
08:00+9ссз3585100 0.3 1008235
11:00+13сз4556100 0.4 10081255
14:00+15зсз4548100 0.0 10082030
17:00+14зсз4562100 0.0 1009829
20:00+10сз697297 0.3 1010341
26 мая, чт
чт2623:00+9сз5878100 0.3 1011563
02:00+6сз48846 0.1 1012239
05:00+4зсз38885 0.1 1013177
08:00+7зсз57720 0.0 1014511
11:00+10зсз565415 0.0 10141544
14:00+12з6649100 0.1 10142126
17:00+12з4751100 0.1 10151685
20:00+10зюз586584 0.1 1015520
27 мая, пт
пт2723:00+7ююз367699 0.1 1015100
02:00+6ю4108121 0.0 1014185
05:00+7ю61575100 0.0 1013328
08:00+10ююз81672100 0.0 1012622
11:00+12ю81675100 0.1 1011808
14:00+14ююз81375100 0.3 10091263
17:00+11юз81691100 2.3 1008976
20:00+12ююз6108883 0.9 1007837